Regional Weather Roundup
Issued by NWS

Home | Current Version | Previous Version | Text Only | Print | Product List | Glossary Off
Versions: 1 2 3 4 5 6 7 8 9 10 11 12 13 14 15 16 17 18 19 20 21 22 23 24 25 26 27 28 29 30 31 32 33 34 35 36 37 38 39 40 41 42 43 44 45 46 47 48 49 50

000
ASUS43 KIND 230509
RWRIN

WEATHER ROUNDUP FOR INDIANA
NATIONAL WEATHER SERVICE INDIANAPOLIS IN
100 AM EDT SAT SEP 23 2017

NOTE: "FAIR" INDICATES FEW OR NO CLOUDS BELOW 12,000 FEET WITH NO
SIGNIFICANT WEATHER AND/OR OBSTRUCTIONS TO VISIBILITY.

* - STATION DOES NOT REPORT WEATHER SUCH AS PRECIPITATION OR FOG.

+ - STATION NOT QUALITY CONTROLLED BY THE NATIONAL WEATHER SERVICE.
    USE DATA WITH CAUTION...ESPECIALLY DEWPOINT AND RELATIVE
    HUMIDITY OBSERVATIONS.

INZ001>003-010>013-019-020-230600-
NORTHWEST INDIANA

CITY           SKY/WX    TMP DP  RH WIND       PRES   REMARKS
GARY /AIRPORT/ CLEAR     71  68  88 CALM      30.05S
KNOX *+        CLEAR     68  66  94 CALM      30.05S
LA PORTE +     CLEAR     69  66  90 CALM      30.07S
MICHIGAN CITY+ CLEAR     70  70 100 CALM      30.06S
MONTICELLO +   CLEAR     70  68  95 CALM      30.05S
RENSSELAER +   CLEAR     72  63  73 CALM      30.06S
VALPARAISO     CLEAR     74  69  85 CALM      30.06S

$$

LMZ046-743>745-230600-
SOUTHERN LAKE MICHIGAN

STATION/POSITION TIME  TEMP    WIND        PRES    WAVE
                       AIR SEA DIR/SP/G            HT
                 (UTC) (F)     (DEG/KT/KT) (MB)    (FT)
BURNS HARBOR     0502   80     170/  5/ 11 1017.6
MICHIGAN CITY    0440   79     140/  7/  8   N/A
5NW MICH CITY    0500   74 72  180/  2/  2   N/A     0

$$

INZ004-005-014>016-021>024-230600-
NORTH CENTRAL INDIANA

CITY           SKY/WX    TMP DP  RH WIND       PRES   REMARKS
GOSHEN         CLEAR     70  66  87 CALM      30.08R
LOGANSPORT +   CLEAR     68  63  83 CALM      30.07S
PERU/GRISSOM   CLEAR     71  69  95 CALM      30.06S
SOUTH BEND     CLEAR     71  69  93 CALM      30.07S
WARSAW +       CLEAR     68  68 100 CALM      30.08R

$$

INZ006>009-017-018-025>027-230600-
NORTHEAST INDIANA

CITY           SKY/WX    TMP DP  RH WIND       PRES   REMARKS
AUBURN +       CLEAR     70  64  83 CALM      30.09S
FORT WAYNE     CLEAR     71  66  84 E3        30.08S
HUNTINGTON +   CLEAR     71  69  93 CALM      30.07S
KENDALLVILLE + CLEAR     68  66  91 CALM      30.10R

$$

INZ028-029-035-036-043>045-051>053-230600-
WEST CENTRAL INDIANA

CITY           SKY/WX    TMP DP  RH WIND       PRES   REMARKS
GREENCASTLE +  CLEAR     68  64  88 CALM      30.07R
LAFAYETTE      CLEAR     69  69 100 CALM      30.05R
TERRE HAUTE    CLEAR     70  66  87 CALM      30.05S

$$

INZ030>032-037>040-046>048-054>057-064-065-230600-
CENTRAL INDIANA

CITY           SKY/WX    TMP DP  RH WIND       PRES   REMARKS
CP ATTERBURY + PTCLDY    66  64  94 CALM      30.07S
FISHERS *+     CLEAR     66  66 100 CALM      30.07S
FRANKFORT +    CLOUDY    69  67  94 CALM      30.08S
GREENWOOD *+   CLEAR     72  71  96 CALM      30.07S
INDIANAPOLIS   PTCLDY    75  66  73 CALM      30.06S
-EAGLE CREEK   CLEAR     72  68  87 CALM      30.06S
KOKOMO +       CLEAR     69  67  93 CALM      30.07F
MARION +       CLEAR     68  66  94 CALM      30.08S FOG
MT COMFORT *+  CLEAR     66  66 100 CALM      30.07S
SHELBYVILLE    CLEAR     69  64  84 E5        30.06S
ZIONSVILLE +   CLEAR     67  66  97 CALM      30.08S

$$

INZ033-034-041-042-049-050-058-059-230600-
EAST CENTRAL INDIANA

CITY           SKY/WX    TMP DP  RH WIND       PRES   REMARKS
MUNCIE         CLEAR     68  65  90 CALM      30.07S
RICHMOND +     CLEAR     66  64  94 E3        30.10R

$$

INZ060-061-067>069-081>083-085>088-230600-
SOUTHWEST INDIANA

CITY           SKY/WX    TMP DP  RH WIND       PRES   REMARKS
EVANSVILLE     CLEAR     71  68  90 CALM      30.03F
HUNTINGBURG +  CLEAR     70  69  97 CALM      30.05S FOG
WASHINGTON +   CLEAR     68  67  94 CALM      30.04S

$$

INZ062-063-066-070>080-084-089>092-230600-
SOUTH CENTRAL AND SOUTHEAST INDIANA

CITY           SKY/WX    TMP DP  RH WIND       PRES   REMARKS
BEDFORD +      CLEAR     70  66  88 CALM      30.05F
BLOOMINGTON    CLEAR     69  65  86 CALM      30.06S
MADISON *+     CLEAR     68  64  88 CALM      30.09S
NORTH VERNON + CLEAR     64  64 100 CALM      30.07S FOG
SEYMOUR +      CLEAR     68  68 100 CALM      30.06R FOG

$$




USA.gov is the U.S. government's official web portal to all federal, state and local government web resources and services.